[[{"header":{"parameterUnit":"m.s-1","parameterCategory":1,"la1":30.2991,"la2":30.254,"lo1":-89.0895,"lo2":-89.0444,"dy":0.0017,"dx":0.0017,"nx":28,"ny":28,"refTime":"2025-11-30T09:00:00:Z","depth":0,"parameterNumber":2,"parameterNumberName":"U-component_of_WINDS"},"data":[0,0,0,0,0,0,0,0,0,0,0,0,0,0,0,0,0,0,0,0,0,0,0,0,0,0,0,0,0,0,0,0,0,0,0,0,0,0,0,0,0,0,0,0,0,0,0,0,0,0,0,0,0,0,0,0,0,0,-4.1829,-4.183,0,-4.1898,-4.1899,-4.19,-4.1814,-4.1811,-4.1808,-4.1805,-4.1877,-4.1882,-4.1887,0,0,0,0,0,0,0,0,0,0,0,0,0,-4.1625,-4.1629,-4.1829,-4.183,-4.1831,-4.1898,-4.1899,-4.19,-4.1815,-4.1811,-4.1807,-4.1803,-4.1876,-4.1881,-4.1887,0,0,0,0,0,0,0,0,0,0,0,0,0,-4.1706,-4.1631,-4.1829,-4.1797,-4.1794,-4.1898,-4.1899,-4.19,-4.1816,-4.1811,-4.1806,-4.1802,-4.1874,-4.1881,-4.1888,-4.2027,0,0,-4.191,-4.1913,0,0,0,0,0,0,0,0,-4.1702,-4.1714,-4.18,-4.1799,-4.1797,-4.1843,-4.1853,-4.1943,-4.1817,-4.1808,-4.1805,-4.1799,-4.187,-4.1877,-4.19,-4.2031,-4.2034,-4.1911,-4.1915,-4.1918,-4.192,0,0,0,0,0,0,0,-4.1696,-4.171,-4.1857,-4.1802,-4.18,-4.1779,-4.1785,-4.187,-4.1864,-4.1808,-4.1802,-4.1811,-4.1868,-4.1893,-4.1901,-4.2035,-4.1911,-4.1917,-4.1922,-4.1924,-4.2284,-4.2289,0,0,0,0,0,0,-4.1694,-4.1706,-4.1854,-4.1859,-4.1736,-4.1786,-4.1793,-4.1833,-4.1863,-4.1863,-4.1815,-4.1807,-4.1883,-4.1893,-4.1904,-4.207,-4.1918,-4.1925,-4.1929,-4.2279,-4.2285,-4.2291,0,0,0,0,0,0,-4.169,-4.1708,-4.1852,-4.1781,-4.1797,-4.1795,-4.184,-4.1837,-4.1862,-4.1868,-4.1867,-4.1843,-4.188,-4.1893,-4.1997,-4.2071,-4.1928,-4.1935,-4.2273,-4.2281,-4.2288,-4.2403,0,0,0,0,0,0,-4.1684,-4.1707,-4.176,-4.1783,-4.1802,-4.1944,-4.1844,-4.1841,-4.1875,-4.1865,-4.1894,-4.1894,-4.1877,-4.1987,-4.2005,-4.2078,-4.1941,-4.2266,-4.2276,-4.2286,-4.2392,-4.2414,-4.2432,0,0,0,0,0,-4.1677,-4.179,-4.1763,-4.1781,-4.1867,-4.1949,-4.196,-4.1937,-4.1881,-4.1934,-4.1938,-4.1893,-4.206,-4.1998,-4.2017,-4.2095,-4.2262,-4.2274,-4.2285,-4.2384,-4.2409,-4.2431,0,0,0,0,0,0,-4.1776,-4.1792,-4.1763,-4.1885,-4.1916,-4.1934,-4.2,-4.1965,-4.2013,-4.2002,-4.1973,-4.198,-4.2091,-4.2103,-4.2034,-4.2232,-4.2151,-4.2168,-4.222,-4.2244,-4.2264,-4.2259,-4.1947,0,0,0,0,0,-4.1812,-4.1876,-4.1887,-4.1994,-4.2011,-4.2003,-4.2038,-4.2018,-4.2049,-4.2062,-4.2073,-4.2106,-4.2165,-4.2205,-4.226,-4.2393,-4.2399,-4.2456,-4.2475,-4.2491,-4.2506,-4.2578,-4.2604,-4.2329,-4.2329,-4.2329,0,0,-4.1887,-4.1904,-4.1946,-4.2014,-4.2036,-4.2104,-4.2015,-4.209,-4.214,-4.2073,-4.2173,-4.2182,-4.2216,-4.2336,-4.2389,-4.2349,-4.2583,-4.2506,-4.2519,-4.2525,-4.2593,-4.2619,-4.2642,-4.2337,-4.2336,-4.2334,0,0,-4.2059,-4.2078,-4.2169,-4.2193,-4.2226,-4.2221,-4.2243,-4.2266,-4.227,-4.2369,-4.232,-4.2379,-4.2482,-4.2509,-4.2536,-4.2718,-4.2678,-4.2737,-4.2839,-4.291,-4.2931,-4.295,-4.3016,-4.304,-4.2751,-4.2751,-4.2751,0,-4.2148,-4.2248,-4.2221,-4.23,-4.2332,-4.2274,-4.2367,-4.2391,-4.2441,-4.2465,-4.2419,-4.2548,-4.2566,-4.2692,-4.2736,-4.2759,-4.2785,-4.2734,-4.293,-4.2949,-4.2967,-4.3029,-4.3054,-4.2758,-4.2757,-4.2757,-4.2756,0,-4.2357,-4.2427,-4.2497,-4.2547,-4.2586,-4.2672,-4.2659,-4.2702,-4.2679,-4.2678,-4.278,-4.28,-4.2858,-4.2886,-4.2865,-4.3009,-4.2983,-4.2935,-4.2854,-4.3,-4.3059,-4.3082,-4.2768,-4.2765,-4.2763,-4.2762,0,0,-4.2593,-4.2627,-4.2653,-4.2675,-4.2708,-4.2762,-4.2845,-4.2902,-4.294,-4.2977,-4.3047,-4.3135,-4.309,-4.3121,-4.3102,-4.3164,-4.3308,-4.3107,-4.3107,-4.3145,-4.3469,-4.3506,-4.3535,-4.3281,-4.3285,-4.3289,-4.3467,0,-4.2766,-4.291,-4.2888,-4.3027,-4.3092,-4.3038,-4.311,-4.3139,-4.314,-4.3196,-4.3197,-4.3261,-4.3196,-4.3215,-4.3273,-4.3278,-4.3373,-4.3264,-4.3347,-4.335,-4.3341,-4.3565,-4.3605,-4.3771,-4.3489,-4.3493,-4.3496,0,-4.2987,-4.3031,-4.3177,-4.32,-4.3227,-4.3292,-4.3343,-4.3396,-4.3428,-4.3424,-4.3459,-4.3428,-4.3512,-4.3429,-4.3545,-4.3472,-4.3504,-4.3511,-4.3517,-4.3525,-4.3433,-4.358,-4.3824,-4.3849,-4.3531,-4.3528,-4.3526,0,-4.3146,-4.3243,-4.3342,-4.3363,-4.3392,-4.344,-4.3454,-4.3481,-4.3516,-4.3561,-4.3584,-4.3637,-4.3667,-4.371,-4.3695,-4.3635,-4.3814,-4.3729,-4.3814,-4.3815,-4.3855,-4.3853,-4.4109,-4.3875,-4.3874,-4.3874,-4.3873,0,-4.3342,-4.3434,-4.3414,-4.3476,-4.3577,-4.3551,-4.3652,-4.366,-4.3684,-4.3747,-4.3703,-4.3762,-4.3738,-4.3797,-4.3785,-4.3883,-4.3897,-4.3897,-4.3893,-4.3902,-4.3902,-4.3924,-4.3912,-4.388,-4.3879,-4.3878,-4.3876,0,-4.3538,-4.3528,-4.3634,-4.3653,-4.366,-4.3734,-4.375,-4.3808,-4.3806,-4.3885,-4.3903,-4.39,-4.3966,-4.3955,-4.4029,-4.4021,-4.4144,-4.4125,-4.4134,-4.413,-4.4216,-4.4209,-4.4495,-4.4532,-4.4273,-4.4275,-4.4277,0,-4.3664,-4.3733,-4.376,-4.3798,-4.3816,-4.3879,-4.3915,-4.3892,-4.3932,-4.3973,-4.4026,-4.4088,-4.4137,-4.4246,-4.4251,-4.4307,-4.429,-4.4387,-4.4299,-4.4305,-4.4293,-4.429,-4.4297,-4.4405,-4.4408,-4.441,-4.4412,0,-4.389,-4.3882,-4.3935,-4.3988,-4.4032,-4.4073,-4.4108,-4.4143,-4.4123,-4.417,-4.4237,-4.4275,-4.435,-4.4413,-4.4466,-4.4481,-4.4444,-4.444,-4.4463,-4.4473,-4.4475,-4.4476,-4.4183,-4.4434,-4.4431,-4.443,-4.4429,-4.4428,-4.4055,-4.4114,-4.4142,-4.4204,-4.4228,-4.4263,-4.4319,-4.4323,-4.4379,-4.4438,-4.4421,-4.4498,-4.4528,-4.4594,-4.4616,-4.4676,-4.464,-4.4673,-4.4681,-4.469,-4.4701,-4.4465,-4.4685,-4.4684,-4.4684,-4.4683,-4.4683,0,-4.4279,-4.4294,-4.4351,-4.4403,-4.4452,-4.4412,-4.4449,-4.4493,-4.4561,-4.4592,-4.464,-4.4718,-4.4779,-4.4788,-4.4846,-4.4893,-4.4877,-4.4909,-4.4906,-4.491,-4.4729,-4.4704,-4.492,-4.492,-4.492,-4.492,-4.492,-4.492,-4.4402,-4.45,-4.4495,-4.4606,-4.462,-4.4695,-4.472,-4.4752,-4.4776,-4.4865,-4.4915,-4.4921,-4.4943,-4.5002,-4.5056,-4.5058,-4.5082,-4.512,-4.5115,-4.4946,-4.4923,-4.49,-4.4876,-4.5125,-4.5125,-4.5291,-4.5292,-4.5293]},{"header":{"parameterUnit":"m.s-1","parameterCategory":1,"la1":30.2991,"la2":30.254,"lo1":-89.0895,"lo2":-89.0444,"dy":0.0017,"dx":0.0017,"nx":28,"ny":28,"refTime":"2025-11-30T09:00:00:Z","depth":0,"parameterNumber":3,"parameterNumberName":"V-component_of_WINDS"},"data":[0,0,0,0,0,0,0,0,0,0,0,0,0,0,0,0,0,0,0,0,0,0,0,0,0,0,0,0,0,0,0,0,0,0,0,0,0,0,0,0,0,0,0,0,0,0,0,0,0,0,0,0,0,0,0,0,0,0,-4.9819,-4.9819,0,-4.9818,-4.9818,-4.9818,-4.9745,-4.9743,-4.9741,-4.9739,-4.9739,-4.9741,-4.9742,0,0,0,0,0,0,0,0,0,0,0,0,0,-4.9755,-4.9757,-4.9819,-4.9819,-4.9819,-4.9818,-4.9818,-4.9818,-4.9745,-4.9743,-4.9741,-4.9739,-4.9738,-4.9741,-4.9743,0,0,0,0,0,0,0,0,0,0,0,0,0,-4.9772,-4.9757,-4.9819,-4.9782,-4.9779,-4.9818,-4.9818,-4.9818,-4.9746,-4.9743,-4.974,-4.9737,-4.9738,-4.974,-4.9743,-4.9817,0,0,-4.9751,-4.9752,0,0,0,0,0,0,0,0,-4.9771,-4.9774,-4.9788,-4.9785,-4.9781,-4.9779,-4.9796,-4.9818,-4.9747,-4.9759,-4.9739,-4.9736,-4.9755,-4.9756,-4.9762,-4.9817,-4.9817,-4.9751,-4.9753,-4.9754,-4.9755,0,0,0,0,0,0,0,-4.977,-4.9774,-4.9819,-4.9788,-4.9784,-4.9766,-4.9765,-4.98,-4.9773,-4.9757,-4.9752,-4.9753,-4.9752,-4.976,-4.9761,-4.9817,-4.9751,-4.9754,-4.9755,-4.9756,-4.9931,-4.9934,0,0,0,0,0,0,-4.9774,-4.9773,-4.9819,-4.9819,-4.9769,-4.9769,-4.9768,-4.9783,-4.9772,-4.9768,-4.9755,-4.9749,-4.9756,-4.9758,-4.9761,-4.9846,-4.9754,-4.9757,-4.9758,-4.9928,-4.9932,-4.9935,0,0,0,0,0,0,-4.9773,-4.9778,-4.9819,-4.9794,-4.9798,-4.9773,-4.979,-4.9784,-4.9791,-4.9771,-4.9765,-4.9768,-4.9754,-4.9757,-4.9803,-4.9845,-4.9758,-4.976,-4.9925,-4.9929,-4.9933,-5.0017,0,0,0,0,0,0,-4.9771,-4.9778,-4.9807,-4.9796,-4.98,-4.9862,-4.9793,-4.9786,-4.9796,-4.9788,-4.9781,-4.9777,-4.9752,-4.98,-4.9806,-4.9847,-4.9762,-4.9921,-4.9927,-4.9932,-5.0011,-5.0024,-5.0036,0,0,0,0,0,-4.9769,-4.9831,-4.9809,-4.9815,-4.9835,-4.9864,-4.9866,-4.9837,-4.98,-4.9828,-4.9814,-4.9777,-4.984,-4.9805,-4.9811,-4.9854,-4.9918,-4.9925,-4.9932,-5.0005,-5.0021,-5.0035,0,0,0,0,0,0,-4.9848,-4.9829,-4.9804,-4.9864,-4.9866,-4.9852,-4.9886,-4.9855,-4.9868,-4.986,-4.9823,-4.9822,-4.9873,-4.9868,-4.983,-4.9924,-4.9872,-4.9881,-4.9926,-4.9941,-4.9953,-4.9953,-4.9765,0,0,0,0,0,-4.9873,-4.9898,-4.988,-4.9935,-4.9937,-4.9912,-4.9923,-4.99,-4.9901,-4.9901,-4.9891,-4.9893,-4.9913,-4.9927,-4.9944,-5.001,-5.0006,-5.0042,-5.0054,-5.0065,-5.0072,-5.0105,-5.012,-4.9958,-4.9958,-4.9957,0,0,-4.9923,-4.9916,-4.9935,-4.995,-4.9949,-4.9976,-4.9913,-4.9944,-4.9964,-4.9906,-4.9948,-4.9941,-4.9941,-4.9997,-5.0021,-4.9994,-5.0116,-5.0073,-5.0082,-5.0084,-5.0114,-5.0129,-5.0143,-4.9962,-4.9961,-4.9961,0,0,-5.0029,-5.0027,-5.0071,-5.0071,-5.007,-5.0052,-5.0063,-5.0053,-5.0046,-5.0088,-5.0045,-5.0067,-5.0102,-5.0103,-5.0108,-5.0213,-5.0179,-5.022,-5.0285,-5.0318,-5.033,-5.0341,-5.0378,-5.0391,-5.0228,-5.0228,-5.0228,0,-5.0093,-5.0132,-5.0098,-5.0132,-5.014,-5.0088,-5.0132,-5.0134,-5.0139,-5.0145,-5.0115,-5.0157,-5.0153,-5.0208,-5.0233,-5.024,-5.025,-5.022,-5.0331,-5.0342,-5.0352,-5.0386,-5.04,-5.0233,-5.0232,-5.0232,-5.0231,0,-5.0209,-5.0236,-5.0272,-5.0277,-5.0289,-5.0328,-5.03,-5.0316,-5.0291,-5.0277,-5.0319,-5.0313,-5.0327,-5.0338,-5.0315,-5.0389,-5.0373,-5.0338,-5.0284,-5.0373,-5.0404,-5.0417,-5.024,-5.0238,-5.0237,-5.0235,0,0,-5.0365,-5.035,-5.0364,-5.0365,-5.0359,-5.0379,-5.0416,-5.0429,-5.0443,-5.0448,-5.0476,-5.0507,-5.0474,-5.048,-5.0456,-5.0485,-5.0566,-5.0446,-5.0445,-5.0467,-5.0646,-5.0672,-5.0688,-5.0544,-5.0546,-5.0548,-5.0646,0,-5.0467,-5.0527,-5.0498,-5.0562,-5.0586,-5.0537,-5.0568,-5.0567,-5.0555,-5.0573,-5.0558,-5.058,-5.0536,-5.0539,-5.0565,-5.0551,-5.0602,-5.0544,-5.057,-5.0571,-5.0571,-5.0704,-5.0732,-5.0824,-5.0658,-5.066,-5.0662,0,-5.0594,-5.0603,-5.0669,-5.0657,-5.0666,-5.0695,-5.0704,-5.0722,-5.072,-5.0709,-5.0715,-5.0684,-5.0718,-5.0666,-5.0711,-5.0672,-5.0681,-5.0676,-5.0679,-5.0679,-5.0621,-5.0708,-5.0853,-5.0867,-5.0681,-5.0679,-5.0678,0,-5.07,-5.0728,-5.0771,-5.0774,-5.0761,-5.0782,-5.0778,-5.0773,-5.0783,-5.0791,-5.0796,-5.0809,-5.0815,-5.0825,-5.0798,-5.0763,-5.0847,-5.0793,-5.0838,-5.0839,-5.0858,-5.0857,-5.1006,-5.0865,-5.0865,-5.0865,-5.0865,0,-5.0816,-5.0858,-5.0818,-5.0845,-5.089,-5.0855,-5.0901,-5.0891,-5.0887,-5.0911,-5.0869,-5.0892,-5.0855,-5.0874,-5.0853,-5.0894,-5.0897,-5.0889,-5.0882,-5.0892,-5.0893,-5.0897,-5.0889,-5.0869,-5.0868,-5.0867,-5.0866,0,-5.0942,-5.0917,-5.096,-5.0944,-5.0941,-5.0975,-5.0962,-5.0985,-5.0969,-5.0999,-5.1004,-5.0978,-5.0998,-5.0972,-5.099,-5.0976,-5.1031,-5.1016,-5.1032,-5.1027,-5.1073,-5.1069,-5.1229,-5.1248,-5.1096,-5.1098,-5.1099,0,-5.1017,-5.1048,-5.1035,-5.1047,-5.1045,-5.1066,-5.1075,-5.1041,-5.1053,-5.1052,-5.1075,-5.1092,-5.1103,-5.1137,-5.112,-5.1133,-5.1117,-5.1173,-5.1119,-5.1127,-5.1117,-5.1115,-5.1117,-5.1184,-5.1185,-5.1187,-5.1188,0,-5.1153,-5.1139,-5.1153,-5.1163,-5.1175,-5.1181,-5.1185,-5.1197,-5.1162,-5.1176,-5.1196,-5.1205,-5.1222,-5.1238,-5.1247,-5.1242,-5.121,-5.1205,-5.1216,-5.1226,-5.1233,-5.1228,-5.106,-5.1201,-5.12,-5.1199,-5.1198,-5.1198,-5.1255,-5.128,-5.1274,-5.1291,-5.1289,-5.1293,-5.1314,-5.13,-5.1315,-5.1326,-5.1306,-5.133,-5.1326,-5.1334,-5.1333,-5.1351,-5.1327,-5.1344,-5.1348,-5.1352,-5.1358,-5.1231,-5.1353,-5.1353,-5.1352,-5.1352,-5.1352,0,-5.1388,-5.1381,-5.1397,-5.1402,-5.1415,-5.1383,-5.1384,-5.1397,-5.1419,-5.1418,-5.143,-5.1451,-5.1467,-5.1451,-5.1463,-5.1481,-5.1466,-5.1486,-5.1483,-5.1483,-5.138,-5.1369,-5.1497,-5.1497,-5.1497,-5.1497,-5.1497,-5.1497,-5.1458,-5.1497,-5.1482,-5.152,-5.1513,-5.1536,-5.154,-5.1543,-5.1541,-5.1567,-5.158,-5.1569,-5.1562,-5.1573,-5.1585,-5.158,-5.1586,-5.1611,-5.16,-5.1504,-5.149,-5.1476,-5.1466,-5.1613,-5.1613,-5.1701,-5.1702,-5.1703]}]]